Location: Équennes
(49.7375°N, 1.9622°E)
Time: 20:23:37
(UTC+00:00)

FENGYUN 1C DEB - Visible Passes

Search period start: 12 July 2024 00:00
Search period end: 22 July 2024 00:00
Orbit: 759 x 847 km, 99.4° (Epoch: 11 July)

Date Brightness Start Highest point End Pass type
(mag) Time Alt. Az. Time Alt. Az. Time Alt. Az.
12 Jul ? 01:35:58 21° S 01:39:31 60° WSW 01:44:45 10° NNW visible
12 Jul ? 23:31:26 10° E 23:34:48 17° NE 23:38:07 10° NNE visible
13 Jul ? 01:09:57 20° SSE 01:13:46 86° ENE 01:19:03 10° NNW visible
13 Jul ? 02:50:57 10° SW 02:54:05 16° W 02:57:15 10° NW visible
13 Jul ? 23:07:49 10° ENE 23:09:29 11° NE 23:11:08 10° NNE visible
14 Jul ? 00:43:55 16° SE 00:48:05 55° ENE 00:53:13 10° N visible
14 Jul ? 02:24:56 15° SW 02:28:03 25° W 02:32:23 10° NW visible
15 Jul ? 00:17:55 11° SE 00:22:30 35° ENE 00:27:14 10° N visible
15 Jul ? 01:58:55 20° SSW 02:02:07 40° W 02:07:04 10° NNW visible
15 Jul ? 23:52:53 10° ESE 23:57:01 24° ENE 00:01:06 10° N visible
16 Jul ? 01:32:54 23° S 01:36:17 65° WSW 01:41:30 10° NNW visible
16 Jul ? 23:28:32 10° E 23:31:37 16° NE 23:34:40 10° NNE visible
17 Jul ? 01:06:53 21° SSE 01:10:32 80° ENE 01:15:46 10° NNW visible
17 Jul ? 02:47:53 12° SW 02:50:47 17° W 02:54:09 10° NW visible
17 Jul ? 23:05:23 10° ENE 23:06:18 10° NE 23:07:13 10° NE visible
18 Jul ? 00:40:53 16° SE 00:44:52 51° ENE 00:49:53 10° N visible
18 Jul ? 02:21:52 17° SW 02:24:46 27° W 02:29:11 10° NW visible
19 Jul ? 00:14:51 11° ESE 00:19:18 33° ENE 00:23:52 10° N visible
19 Jul ? 01:55:51 22° SSW 01:58:50 43° W 02:03:48 10° NNW visible
19 Jul ? 23:49:53 10° ESE 23:53:48 22° ENE 23:57:41 10° N visible
20 Jul ? 01:29:50 25° S 01:33:00 70° WSW 01:38:12 10° NNW visible
20 Jul ? 03:12:16 10° W 03:13:34 11° W 03:14:53 10° WNW visible
20 Jul ? 23:25:38 10° E 23:28:24 15° NE 23:31:10 10° NNE visible
21 Jul ? 01:03:50 22° SSE 01:07:16 74° ENE 01:12:26 10° NNW visible
21 Jul ? 02:44:49 13° SW 02:47:27 18° W 02:51:01 10° NW visible
